[Iaude] MPEC V103: 2016 VY3 [a=2.37,e=0.48,i=9.9,H=20.2]

mpec at si.edu mpec at si.edu
Thu Nov 10 14:23:51 EST 2016


M.P.E.C. 2016-V103                               Issued 2016 Nov. 10, 19:20 UT
 
     The Minor Planet Electronic Circulars contain information on unusual
         minor planets and routine data on comets.  They are published
    on behalf of Division F of the International Astronomical Union by the
          Minor Planet Center, Smithsonian Astrophysical Observatory,
                          Cambridge, MA 02138, U.S.A.

             Prepared using the Tamkin Foundation Computer Network

                              MPC at CFA.HARVARD.EDU
            URL http://www.minorplanetcenter.net/    ISSN 1523-6714


                                   2016 VY3
 
Observations:
     K16V03Y* C2016 11 07.44491 07 07 24.93 +11 03 54.3          20.6 VqEV103G96
     K16V03Y  C2016 11 07.45149 07 07 26.08 +11 03 58.7                qEV103G96
     K16V03Y  C2016 11 07.46478 07 07 28.61 +11 04 08.1          20.5 VqEV103G96
     K16V03Y  C2016 11 07.49307 07 07 33.91 +11 04 26.2          20.3 VqEV103G96
     K16V03Y  C2016 11 07.49701 07 07 34.62 +11 04 29.7          20.8 VqEV103G96
     K16V03Y  C2016 11 07.49978 07 07 35.13 +11 04 31.3          20.7 VqEV103G96
     K16V03Y KC2016 11 07.50859 07 07 36.82 +11 04 37.7          20.6 RoEV103291
     K16V03Y KC2016 11 07.51013 07 07 37.12 +11 04 38.6          19.9 RoEV103291
     K16V03Y KC2016 11 07.51167 07 07 37.38 +11 04 39.0                oEV103291
     K16V03Y  C2016 11 08.42445 07 10 34.21 +11 15 10.0          20.7 VqEV103G96
     K16V03Y  C2016 11 08.42743 07 10 34.75 +11 15 11.8          20.5 VqEV103G96
     K16V03Y  C2016 11 08.43048 07 10 35.32 +11 15 14.3          20.7 VqEV103G96
     K16V03Y  C2016 11 08.49661 07 10 47.58 +11 16 01.1          20.5 RoEV103926
     K16V03Y  C2016 11 08.50517 07 10 49.16 +11 16 06.6          20.4 RoEV103926
     K16V03Y  C2016 11 08.51389 07 10 50.76 +11 16 13.6          20.5 RoEV103926
     K16V03Y  C2016 11 09.44641 07 13 51.17 +11 27 16.0          19.5 VqEV103G96
     K16V03Y  C2016 11 09.44976 07 13 51.79 +11 27 18.4          20.3 VqEV103G96
     K16V03Y  C2016 11 09.45280 07 13 52.35 +11 27 20.6          20.5 VqEV103G96
     K16V03Y  C2016 11 09.45589 07 13 52.88 +11 27 21.8                qEV103G96
     K16V03Y  C2016 11 09.50052 07 14 01.21 +11 27 56.5                oEV103926
     K16V03Y  C2016 11 09.50899 07 14 02.78 +11 28 01.6          20.9 RoEV103926
     K16V03Y  C2016 11 09.52044 07 14 04.88 +11 28 09.9          20.5 RoEV103926
     K16V03Y  C2016 11 10.48097 07 17 10.29 +11 39 53.6          20.9 RoEV103926
     K16V03Y  C2016 11 10.49054 07 17 12.04 +11 40 01.0          20.9 RoEV103926
     K16V03Y  C2016 11 10.49993 07 17 13.80 +11 40 06.3          20.4 VqEV103G96
     K16V03Y  C2016 11 10.50226 07 17 14.19 +11 40 09.3          20.4 RoEV103926
     K16V03Y  C2016 11 10.50258 07 17 14.22 +11 40 09.0          20.3 VqEV103G96
     K16V03Y  C2016 11 10.50531 07 17 14.73 +11 40 10.3                qEV103G96
 
Observer details:
291 LPL/Spacewatch II.  Observer A. F. Tubbiolo.  1.8-m f/2.7 reflector + CCD.
926 Tenagra II Observatory.  Observers M. Schwartz, P. R. Holvorcem.  Measurer
    M. Schwartz.  0.81-m f/7 Ritchey-Chretien + CCD.
G96 Mt. Lemmon Survey.  Observers R. A. Kowalski, R. G. Matheny.  Measurers
    E. J. Christensen, D. C. Fuls, A. R. Gibbs, A. D. Grauer, J. A. Johnson,
    R. A. Kowalski, S. M. Larson, G. J. Leonard, R. G. Matheny, R. L. Seaman,
    F. C. Shelly.  1.5-m reflector + 10K CCD.
 
Orbital elements:
2016 VY3                                                 Earth MOID = 0.2539 AU
Epoch 2016 July 31.0 TT = JDT 2457600.5                 MPC
M 326.92339              (2000.0)            P               Q
n   0.26949335     Peri.  355.84582     +0.12496539     -0.97724899
a   2.3737629      Node    86.91344     +0.91516382     +0.04681994
e   0.4779725      Incl.    9.88203     +0.38322165     +0.20686302
P   3.66           H   20.2           G   0.15           U   8
Residuals in seconds of arc
161107 G96  0.2-  0.2+    161108 G96  0.1+  0.2-    161109 926  0.0   0.2+
161107 G96  1.3-  0.1+    161108 G96  0.2+  0.2+    161109 926  0.4-  0.3+
161107 G96  0.4-  0.5+    161108 926  0.3-  0.2+    161110 926  0.5+  0.2+
161107 G96  0.1+  0.7-    161108 926  0.5-  0.2-    161110 926  0.1+  0.5+
161107 G96  0.2-  0.2+    161108 926  0.8-  0.7+    161110 G96  0.4+  0.8-
161107 G96  0.3-  0.1-    161109 G96  0.1+  0.0     161110 926  0.2-  0.2+
161107 291  0.2+  0.1+    161109 G96  0.0   0.0     161110 G96  0.6-  0.0
161107 291  0.4+  0.0     161109 G96  0.0   0.0     161110 G96  0.6-  0.8-
161107 291  0.0   0.6-    161109 G96  0.7-  1.1-
161108 G96  0.4+  0.1+    161109 926  0.0   1.2+

Ephemeris:
2016 VY3                 a,e,i = 2.37, 0.48, 10                  q = 1.2392
Date    TT    R. A. (2000) Decl.     Delta      r     Elong.  Phase     V
2016 10 11    05 40 29.4 +07 31 16   0.6078  1.3492   112.0    43.3    21.4
...
2016 10 26    06 27 25.4 +09 06 21   0.5116  1.2958   115.0    44.1    21.0
...
2016 11 03    06 53 05.7 +10 16 49   0.4694  1.2738   116.7    44.1    20.8
...
2016 11 09    07 12 24.7 +11 22 03   0.4419  1.2606   118.1    43.9    20.6
2016 11 10    07 15 37.5 +11 34 05   0.4376  1.2587   118.4    43.8    20.6
2016 11 11    07 18 50.1 +11 46 28   0.4335  1.2569   118.7    43.7    20.6
...
2016 11 17    07 37 57.3 +13 08 22   0.4106  1.2478   120.4    43.1    20.4
...
2016 11 25    08 02 43.1 +15 19 01   0.3855  1.2407   123.2    41.8    20.2
...
2016 12 10    08 44 22.5 +20 30 46   0.3548  1.2431   130.1    37.3    19.9

A. U. Tomatic                (C) Copyright 2016 MPC           M.P.E.C. 2016-V103




More information about the Iaude mailing list